TimeEST,TemperatureF,Dew PointF,Humidity,Sea Level PressureIn,VisibilityMPH,Wind Direction,Wind SpeedMPH,Gust SpeedMPH,PrecipitationIn,Events,Conditions,WindDirDegrees,DateUTC
12:20 AM,33.8,33.8,100,29.82,4.0,North,12.7,24.2,0.01,Snow,Light Snow,360,2013-02-25 05:20:00
12:56 AM,34.0,34.0,100,29.84,3.0,North,16.1,21.9,0.02,Snow,Light Snow,360,2013-02-25 05:56:00
1:56 AM,34.0,34.0,100,29.85,4.0,North,13.8,19.6,0.01,Snow,Light Snow,360,2013-02-25 06:56:00
2:56 AM,35.1,34.0,96,29.86,10.0,North,9.2,-,0.00,,Overcast,350,2013-02-25 07:56:00
3:15 AM,35.6,33.8,93,29.86,9.0,NNW,11.5,-,0.00,Snow,Light Snow,340,2013-02-25 08:15:00
3:25 AM,35.6,33.8,93,29.86,9.0,North,11.5,21.9,0.00,,Overcast,350,2013-02-25 08:25:00
3:56 AM,35.1,33.1,92,29.89,6.0,NNW,16.1,21.9,0.00,,Overcast,340,2013-02-25 08:56:00
4:56 AM,35.1,32.0,89,29.92,10.0,NNW,15.0,23.0,0.00,,Overcast,340,2013-02-25 09:56:00
5:22 AM,35.6,32.0,87,29.93,10.0,North,13.8,24.2,N/A,,Overcast,350,2013-02-25 10:22:00
5:48 AM,33.8,30.2,87,29.93,10.0,North,11.5,20.7,N/A,,Mostly Cloudy,360,2013-02-25 10:48:00
5:56 AM,34.0,30.9,89,29.95,10.0,North,15.0,23.0,N/A,,Mostly Cloudy,350,2013-02-25 10:56:00
6:06 AM,35.6,30.2,81,29.95,10.0,North,15.0,21.9,N/A,,Mostly Cloudy,360,2013-02-25 11:06:00
6:56 AM,35.1,30.0,82,29.98,10.0,North,10.4,20.7,N/A,,Overcast,350,2013-02-25 11:56:00
7:56 AM,35.1,30.9,85,30.00,10.0,North,11.5,-,N/A,,Overcast,360,2013-02-25 12:56:00
8:56 AM,37.9,30.0,73,30.01,10.0,North,12.7,19.6,N/A,,Overcast,10,2013-02-25 13:56:00
9:03 AM,37.4,28.4,70,30.00,10.0,NNE,15.0,20.7,N/A,,Partly Cloudy,20,2013-02-25 14:03:00
9:56 AM,39.9,27.0,60,30.04,10.0,North,11.5,20.7,N/A,,Clear,10,2013-02-25 14:56:00
10:56 AM,42.1,27.0,55,30.06,10.0,NNE,10.4,18.4,N/A,,Clear,20,2013-02-25 15:56:00
11:56 AM,41.0,26.1,55,30.06,10.0,North,13.8,20.7,N/A,,Clear,350,2013-02-25 16:56:00
12:56 PM,41.0,26.1,55,30.08,10.0,North,13.8,18.4,N/A,,Clear,360,2013-02-25 17:56:00
1:56 PM,41.0,25.0,53,30.09,10.0,North,12.7,-,N/A,,Scattered Clouds,10,2013-02-25 18:56:00
2:56 PM,39.9,25.0,55,30.11,10.0,North,12.7,20.7,N/A,,Clear,360,2013-02-25 19:56:00
3:56 PM,39.0,25.0,57,30.13,10.0,North,11.5,-,N/A,,Clear,350,2013-02-25 20:56:00
4:56 PM,37.0,27.0,67,30.16,10.0,North,11.5,-,N/A,,Clear,10,2013-02-25 21:56:00
5:56 PM,36.0,28.0,73,30.17,10.0,North,4.6,-,N/A,,Clear,10,2013-02-25 22:56:00
6:56 PM,34.0,28.0,79,30.18,10.0,NE,4.6,-,N/A,,Partly Cloudy,40,2013-02-25 23:56:00
7:56 PM,30.0,27.0,88,30.21,10.0,Calm,Calm,-,N/A,,Clear,0,2013-02-26 00:56:00
8:56 PM,28.9,26.1,89,30.23,10.0,Calm,Calm,-,N/A,,Clear,0,2013-02-26 01:56:00
9:56 PM,27.0,26.1,96,30.22,10.0,Calm,Calm,-,N/A,,Clear,0,2013-02-26 02:56:00
10:56 PM,27.0,25.0,92,30.23,10.0,Calm,Calm,-,N/A,,Clear,0,2013-02-26 03:56:00
11:56 PM,26.1,24.1,92,30.24,10.0,Calm,Calm,-,N/A,,Clear,0,2013-02-26 04:56:00